Regional Weather Roundup
Issued by NWS

Home | Current Version | Previous Version | Graphics & Text | Print | Product List | Glossary On
Versions: 1 2 3 4 5 6 7 8 9 10 11 12 13 14 15 16 17 18 19 20 21 22 23 24 25 26 27 28 29 30 31 32 33 34 35 36 37 38 39 40 41 42 43 44 45 46 47 48 49 50
000
ASUS43 KDTX 281701
RWRMI
MICHIGAN HOURLY REGIONAL WEATHER ROUNDUP
NATIONAL WEATHER SERVICE DETROIT/PONTIAC MI
100 PM EDT THU APR 28 2016

NOTE: "FAIR" INDICATES FEW OR NO CLOUDS BELOW 12,000 FEET WITH NO
SIGNIFICANT WEATHER AND/OR OBSTRUCTION TO VISIBILITY.

MIZ047>049-052>055-059>063-066>070-074>076-081>083-281800-
SOUTHEAST LOWER MICHIGAN

CITY           SKY/WX    TMP DP  RH WIND       PRES   REMARKS
ADRIAN         CLOUDY    45  37  73 E21G28    29.94F
ALMA           CLOUDY    43  30  61 E10       30.02R
ANN ARBOR      LGT RAIN  44  34  67 E15G22    29.96F
BAD AXE        CLOUDY    42  29  61 NE8       30.05S
CARO           CLOUDY    45  24  42 E8G17     30.01F
DETROIT CITY   CLOUDY    46  31  55 E13       30.00F
DETROIT        LGT RAIN  46  33  60 NE13      29.98F
FLINT          CLOUDY    49  31  49 E12       29.99F
GROSSE ILE     CLOUDY    45  36  70 NE14G20   29.96F
HILLSDALE      CLOUDY    45  40  81 E14       29.92S
HOWELL         CLOUDY    46  32  59 E13G18    29.97S

CITY           SKY/WX    TMP DP  RH WIND       PRES   REMARKS
JACKSON        CLOUDY    43  32  65 E13       29.94R
LAMBERTVILLE   CLOUDY    47  39  75 E13G25    29.94S
LANSING        LGT RAIN  42  36  79 NE7       29.98S
LAPEER         CLOUDY    45  25  46 E8        30.00F
MASON          LGT RAIN  42  37  82 CALM      29.96R
MONROE         CLOUDY    44  37  77 E8G17     29.95F
MT. CLEMENS    CLOUDY    46  31  56 E12       29.99F
PONTIAC        CLOUDY    44  28  53 E13       29.97F
PORT HOPE        N/A     40  35  83 NE14      30.04F WCI  32
PORT HURON     CLOUDY    48  25  40 E10       30.00F
TRI CITIES     LGT RAIN  48  23  37 E16       30.02F
MIDLAND        CLOUDY    44  32  61 NE13G18   30.02S
TROY           CLOUDY    45  29  53 E12G21    30.00F
SAGINAW HB     CLOUDY    45  30  57 E9        30.01F
$$
MIZ043>046-050>051-056>058-064>065-071>073-077>080-281800-
SOUTHWEST LOWER MICHIGAN

CITY           SKY/WX    TMP DP  RH WIND       PRES   REMARKS
BATTLE CREEK   CLOUDY    42  38  85 E9        29.96R
BENTON HARBOR  CLOUDY    48  40  73 E12G20    29.91R
BIG RAPIDS     LGT RAIN  40  32  74 E12       29.99S WCI  33
COLDWATER      CLOUDY    47  40  77 E10       29.93S
FREMONT        LGT RAIN  39  35  85 CALM      30.01R
HOLLAND        CLOUDY    41  38  89 E9        29.96S
GRAND RAPIDS   LGT RAIN  40  37  89 E14       29.97R FOG     WCI  32
IONIA          HVY RAIN  39  35  85 NE8       29.99R WCI  33
KALAMAZOO      CLOUDY    44  37  76 E10       29.94F
LUDINGTON      LGT RAIN  41  33  73 E10G22    30.03R
MARSHALL       CLOUDY    42  38  86 E6        29.95R
MOUNT PLEASANT LGT RAIN  42  33  69 E6        30.01S
MUSKEGON       LGT RAIN  39  34  82 E9        30.00R WCI  33
$$
MIZ016>042-281800-
NORTHERN LOWER MICHIGAN

CITY           SKY/WX    TMP DP  RH WIND       PRES   REMARKS
ALPENA         PTSUNNY   42  28  57 SE14      30.11F
BEAVER ISLAND  CLOUDY    42  30  62 NE14G23   30.10R
BELLAIRE       CLOUDY    51  24  33 SE13      30.04F
CADILLAC       CLOUDY    45  19  36 E23       29.99F
CHARLEVOIX     CLOUDY    48  24  39 E9        30.09S
FRANKFORT      CLOUDY    50  24  36 SE8       30.02R
GAYLORD        CLOUDY    47  24  40 E10G20    30.04F
GRAYLING       CLOUDY    50  25  37 E12G22    30.05S
HARBOR SPRINGS MOSUNNY   48  27  43 E15       30.07S
HOUGHTON LAKE  CLOUDY    47  21  35 E17G26    30.03F
MANISTEE       CLOUDY    45  27  49 S8        30.03R
OSCODA         CLOUDY    43  31  63 NE13      30.08F
PELLSTON       MOSUNNY   48  28  46 SE10G21   30.09S
ROGERS CITY    CLOUDY    40  28  61 E9G17     30.13S WCI  34
TRAVERSE CITY  CLOUDY    51  24  34 E14       30.03R
$$
MIZ007>008-015-281800-
EASTERN UPPER MICHIGAN

CITY           SKY/WX    TMP DP  RH WIND       PRES   REMARKS
KINROSS          N/A     46  27  46 E9        30.10F
MACKINAC ISLAN MOSUNNY   40  28  60 E15G23    30.11S WCI  32
NEWBERRY       SUNNY     47  24  39 CALM      30.08F
S. S. MARIE    CLOUDY    48  25  40 MISG      30.10F
MUNISING         N/A     41  33  73 N9        30.10R
$$
MIZ004>006-011>014-085-281800-
CENTRAL UPPER MICHIGAN

CITY           SKY/WX    TMP DP  RH WIND       PRES   REMARKS
MANISTIQUE     PTSUNNY   46  25  42 E20G26    30.10R
ESCANABA       MOSUNNY   48  25  40 E14       30.09R
MENOMINEE      CLOUDY    45  30  57 E17G24    30.06S
SAWYER-GWINN   SUNNY     45  28  53 NE12      30.09
$$
MIZ001>003-009>011-084-281800-
WESTERN UPPER MICHIGAN

CITY           SKY/WX    TMP DP  RH WIND       PRES   REMARKS
IRON MOUNTAIN  CLOUDY    50  23  34 SE12G18   30.05R
HOUGHTON       CLOUDY    44  27  51 E14       30.11S
COPPER HARBOR    N/A     41  32  70 E10G17    30.15R
IRONWOOD       CLOUDY    46  21  36 E7        30.04S
$$

ABBREVIATIONS USED IN REMARKS
   TC - TEMPERATURE IN CELSIUS
  WCI - WIND CHILL INDEX
   HX - HEAT INDEX
  VSB - VISIBILITY




USA.gov is the U.S. government's official web portal to all federal, state and local government web resources and services.